Location: Detroit
(42.3310°N, 83.0460°W)
Time: 13:58:48
(UTC-04:00)

Courier 1B Rocket - Pass Details

Date: 21 April 2024
Orbit: 920 x 1201 km, 28.2° (Epoch: 19 May)

Event Time Altitude Azimuth Distance (km) Brightness Sun altitude
Exits shadow 04:04:37 14° 157° (SSE) 2,779 7.1 -25.2°
Drops below altitude 10° 04:07:55 10° 130° (SE) 3,016 7.6 -24.8°
Sets 04:12:19 0° 106° (ESE) 3,917 8.5 -24.2°
